Home > Weather > London > Past weeks

Flag for Canada Past Weather in London, Ontario, Canada — Yesterday and Last 2 Weeks

Now
57 °F

Passing clouds.


Feels Like: 57 °F
Forecast: 54 / 69 °F
Wind: 5 mph from Southeast

Location: London Weather Station

Current Time: Jul 1, 2016 at 4:14:27 AM

Latest Report: Jul 1, 2016 at 3:00 AM


Visibility: 15 mi

Pressure: 29.90 "Hg

Humidity: 88%

Dew Point: 54 °F

Location of LondonLocation

Past Weather in London — Graph

°F

London Temperature Yesterday

Maximum temperature yesterday: 81 °F (at 3:00 PM)
Minimum temperature yesterday: 45 °F (at 6:00 AM)
Average temperature yesterday: 64 °F

High & Low Weather Summary for the Past Weeks

 TemperatureHumidityPressure
High88 °F (Jun 20, 5:00 PM)100% (Jun 16, 9:00 AM)30.30 "Hg (Jun 16, 9:00 AM)
Low45 °F (Jun 30, 6:00 AM)25% (Jun 18, 4:00 PM)29.70 "Hg (Jun 16, 1:00 PM)
Average69 °F63%30.00 "Hg
* Reported Jun 16 3:00 AM — Jul 1 3:00 AM, London, Weather by CustomWeather, © 2016

Note: Actual official high and low records may vary slightly from our data, if they occured in-between our weather recording intervals... More about our weather records

Advertising

London Weather History for the Previous 24 Hours

Scroll right to see more
 ConditionsComfort  
Time TempWeatherWind HumidityBarometerVisibility
3:00 AM
Fri, Jul 1
57 °FPassing clouds.5 mph88%29.90 "Hg15 mi
2:00 AM59 °FClear.2 mph82%29.92 "Hg15 mi
1:00 AM59 °FClear.5 mph77%29.93 "Hg15 mi
12:00 AM61 °FClear.5 mph72%29.95 "Hg15 mi
11:00 PM
Thu, Jun 30
63 °FPassing clouds.6 mph64%29.96 "Hg15 mi
10:00 PM66 °FPassing clouds.3 mph52%29.96 "Hg15 mi
9:00 PM70 °FPassing clouds.8 mph43%29.96 "Hg15 mi
8:00 PM73 °FPassing clouds.15 mph38%29.98 "Hg15 mi
7:00 PM75 °FPassing clouds.12 mph39%29.98 "Hg15 mi
6:00 PM77 °FPassing clouds.12 mph39%29.98 "Hg15 mi
5:00 PM79 °FPassing clouds.15 mph37%29.98 "Hg15 mi
4:00 PM79 °FPassing clouds.7 mph37%29.98 "Hg15 mi
3:00 PM81 °FScattered clouds.9 mph32%29.99 "Hg15 mi
2:00 PM77 °FBroken clouds.10 mph36%30.01 "Hg15 mi
1:00 PM79 °FBroken clouds.9 mph37%30.02 "Hg15 mi
12:00 PM77 °FPartly sunny.6 mph34%30.04 "Hg15 mi
11:00 AM75 °FPartly sunny.6 mph39%30.04 "Hg15 mi
10:00 AM70 °FPartly sunny.No wind57%30.06 "Hg15 mi
9:00 AM66 °FPartly sunny.No wind64%30.07 "Hg15 mi
8:00 AM57 °FScattered clouds.No wind77%30.06 "Hg15 mi
7:00 AM50 °FScattered clouds.No wind88%30.06 "Hg15 mi
6:00 AM45 °FPassing clouds.2 mph100%30.05 "Hg15 mi
5:00 AM46 °FPassing clouds.3 mph87%30.04 "Hg15 mi
4:00 AM46 °FClear.No wind100%30.04 "Hg15 mi
Weather by CustomWeather, © 2016

See weather overviewHow to use our weather pages